Weather in Strelka

Russia / Krasnodar Krai     45°12′31″N   37°17′05″E
temp.,
°C
wind,
m/s
gust,
m/s
humid.,
%
clouds,
%
prec.,
mm/h
press.,
hPa
HPBL,
m
25 february, thu
thu2500:00−6e7115133 0.0 1035358
03:00−6ene795551 0.0 1035348
06:00−8ene576263 0.0 1035252
09:00−6e465847 0.0 1035234
12:00−1ene343718 0.0 1035275
15:00+1nne223425 0.0 1034294
18:00−1nnw114994 0.0 103346
21:00+1sw335197 0.0 1033100
26 february, fri
fri2600:00+3sw4676100 0.0 1032154
03:00+3w4787100 0.0 1031189
06:00+4wsw3690100 0.0 1030149
09:00+5sw4791100 0.0 1030202
12:00+7sw81187100 0.1 1028550
15:00+7sw71190100 0.4 1028500
18:00+7sw71190100 0.2 1026392
21:00+7sw91390100 0.2 1026470
27 february, sat
sat2700:00+7sw9138992 0.0 1024527
03:00+7sw10138794 0.0 1022651
06:00+7sw91388100 0.1 1020640
09:00+7sw101385100 0.1 1020707
12:00+7sw101483100 0.4 1018792
15:00+8sw101479100 0.6 1017837
18:00+7sw91384100 0.7 1015707
21:00+6nnw6996100 5.9 1015435
28 february, sun
sun2800:00+5nnw2588100 2.0 1015293
03:00+5nw4673100 2.0 1015358
06:00+5wnw477996 0.2 1016406
09:00+4wnw578698 0.7 1017686
12:00+6nw787385 0.2 1018960
15:00+5nw787190 0.4 1019972
18:00+4nw577597 0.2 1020876
21:00+4nw467194 0.4 1022766
1 march, mon
mon100:00+4nw4673100 0.2 1024482
03:00+3nnw357399 0.3 1024283
06:00+2nnw467378 0.0 1025328
09:00+2n457289 0.1 1027844
12:00+3n4575100 0.1 1028768
15:00+2nne457596 0.3 1028687
18:00+2nne566899 0.1 1029970
21:00+1nne5670100 0.1 1030936